This is the latest recevied weather packets stored in our database for station/object AC5CM. If no packets are shown the sender has not sent any weather packets the latest 10 day(s).
| Time | Temp. | Humidity | Pressure | Rain* | Wind** | Luminosity | Snow |
|---|---|---|---|---|---|---|---|
| 1777733268 | 17.78° C | 74% | 1021.3 hPa | 0 mm | - | - | - |
| 1777732965 | 18.33° C | 72% | 1021.4 hPa | 0 mm | - | - | - |
| 1777732661 | 18.33° C | 75% | 1021.4 hPa | 0 mm | - | - | - |
| 1777732359 | 17.78° C | 77% | 1021.3 hPa | 0 mm | - | - | - |
| 1777732056 | 17.78° C | 76% | 1021.3 hPa | 0 mm | - | - | - |
| 1777731753 | 17.22° C | 76% | 1021.2 hPa | 0 mm | - | - | - |
| 1777731450 | 17.22° C | 77% | 1021.2 hPa | 0 mm | - | - | - |
| 1777731148 | 17.22° C | 79% | 1021.1 hPa | 0 mm | - | - | - |
| 1777730846 | 16.67° C | 80% | 1021.1 hPa | 0 mm | - | - | - |
| 1777730543 | 16.67° C | 80% | 1021 hPa | 0 mm | - | - | - |
| 1777730239 | 16.11° C | 80% | 1021.1 hPa | 0 mm | - | - | - |
| 1777729936 | 16.11° C | 82% | 1020.9 hPa | 0 mm | - | - | - |
| 1777729632 | 15.56° C | 83% | 1020.9 hPa | 0 mm | - | - | - |
| 1777729329 | 16.11° C | 82% | 1020.8 hPa | 0 mm | - | - | - |
| 1777729025 | 15.56° C | 85% | 1020.9 hPa | 0 mm | - | - | - |
| 1777728722 | 15° C | 84% | 1020.8 hPa | 0 mm | - | - | - |
| 1777728419 | 15° C | 86% | 1020.7 hPa | 0 mm | - | - | - |
| 1777728116 | 14.44° C | 87% | 1020.5 hPa | 0 mm | - | - | - |
| 1777727813 | 14.44° C | 87% | 1020.4 hPa | 0 mm | - | - | - |
| 1777727510 | 14.44° C | 89% | 1020.2 hPa | 0 mm | - | - | - |
| 1777727207 | 13.89° C | 89% | 1020.2 hPa | 0 mm | - | - | - |
| 1777726905 | 13.33° C | 90% | 1020 hPa | 0 mm | - | - | - |
| 1777726601 | 13.33° C | 90% | 1019.9 hPa | 0 mm | - | - | - |
| 1777726298 | 12.78° C | 91% | 1020.1 hPa | 0 mm | - | - | - |
| 1777725995 | 12.78° C | 91% | 1019.9 hPa | 0 mm | - | - | - |
* Rain latest hour (hover to see other rain measurements)
** Current wind speed in m/s (hover to see current wind gust speed)